591 
ASUS46 KSEW 070010
RWRWA 

WASHINGTON REGIONAL WEATHER ROUNDUP
NATIONAL WEATHER SERVICE SEATTLE WA
500 PM PDT FRI MAY 06 2016

NOTE:"FAIR" INDICATES FEW OR NO CLOUDS BELOW 12,000 FEET WITH NO 
SIGNIFICANT WEATHER AND/OR OBSTRUCTIONS TO VISIBILITY.

WAZ505-507>509-070100-
SEATTLE, TACOMA, EVERETT, AND VICINITY
  
CITY           SKY/WX    TMP DP  RH WIND       PRES   REMARKS
EVERETT        SUNNY     71  40  32 N12       30.02F                  
6HR MIN TEMP:  61; 6HR MAX TEMP:  71;                                

BOEING FIELD   SUNNY     75  42  30 NW13G18   29.99F                  
6HR MIN TEMP:  67; 6HR MAX TEMP:  75;                                

RENTON         SUNNY     74  45  35 NW15      29.98F                  
6HR MIN TEMP:  64; 6HR MAX TEMP:  75; 6HR PCP: TRACE;                

SEATAC AIRPORT MOSUNNY   76  40  27 N14       30.00F                  
6HR MIN TEMP:  66; 6HR MAX TEMP:  77;                                

JBLM-MCCHORD   SUNNY     74  39  28 N15G26    29.99F                  
6HR MIN TEMP:  67; 6HR MAX TEMP:  74;                                

PUYALLUP       FAIR      75  43  31 VRB6      29.99F                  
BREMERTON      SUNNY     75  37  25 N12       30.02S                  
6HR MIN TEMP:  66; 6HR MAX TEMP:  77;                                

JBLM-FT LEWIS  SUNNY     74  40  29 N13G20    29.99S                  
6HR MIN TEMP:  67; 6HR MAX TEMP:  76;                                

TACOMA NARROWS SUNNY     72  38  29 N10       30.00F                  
6HR MIN TEMP:  64; 6HR MAX TEMP:  72;                                

$$
 
WAZ001-503-506-510-514-515-070100-
NORTH INTERIOR
  
CITY           SKY/WX    TMP DP  RH WIND       PRES   REMARKS
BELLINGHAM     SUNNY     75  43  31 VRB6      30.01F                  
6HR MIN TEMP:  68; 6HR MAX TEMP:  75;                                

FRIDAY HARBOR  SUNNY     70  42  36 SW9       30.03F                  
6HR MIN TEMP:  63; 6HR MAX TEMP:  76;                                

EASTSOUND      SUNNY     64  41  42 N6        30.01F                  
PORT ANGELES   SUNNY     78  27  15 NE3       30.04F                  
6HR MIN TEMP:  70; 6HR MAX TEMP:  78; 6HR PCP: TRACE;                

EDIZ HOOK      FAIR      65  46  51 W9        30.03F                  
6HR MIN TEMP:  64; 6HR MAX TEMP:  75;                                

PORT TOWNSEND  FAIR      75  30  19 NW13      30.02F                  
NAS WHIDBEY    MOSUNNY   66  46  48 W9        30.05F                  
6HR MIN TEMP:  62; 6HR MAX TEMP:  69;                                

ARLINGTON      SUNNY     73  39  29 NW13G24   30.01F                  
6HR MIN TEMP:  63; 6HR MAX TEMP:  73;                                

BURLINGTON     SUNNY     68  46  45 NW13      30.01F                  
$$
 
WAZ020-022-039-040-504-511-512-070100-
SOUTHWEST INTERIOR
  
CITY           SKY/WX    TMP DP  RH WIND       PRES   REMARKS
SHELTON        SUNNY     79  41  25 E9        29.95F                  
6HR MIN TEMP:  65; 6HR MAX TEMP:  81;                                

OLYMPIA        SUNNY     77  40  26 NE12      29.99S                  
6HR MIN TEMP:  68; 6HR MAX TEMP:  78;                                

CHEHALIS       FAIR      79  43  27 N10G17    29.97F                  
KELSO          SUNNY     81  41  24 N14G23    29.96S                  
6HR MIN TEMP:  68; 6HR MAX TEMP:  81;                                

VANCOUVER      SUNNY     82  49  31 N8        29.88F                  
6HR MIN TEMP:  68; 6HR MAX TEMP:  82;                                

SCAPPOOSE, OR  SUNNY     81  49  32 N10G21    29.89F                  
6HR MIN TEMP:  70; 6HR MAX TEMP:  82;                                

PORTLAND, OR   MOSUNNY   81  48  31 NW10G17   29.88F                  
6HR MIN TEMP:  68; 6HR MAX TEMP:  82;                                

$$
 
WAZ021-516-517-070100-
WASHINGTON COAST
  
CITY           SKY/WX    TMP DP  RH WIND       PRES   REMARKS
FORKS          SUNNY     74  35  24 N16G28    30.02F                  
6HR MIN TEMP:  74; 6HR MAX TEMP:  79;                                

HOQUIAM        SUNNY     73  49  42 W9        29.98F                  
6HR MIN TEMP:  62; 6HR MAX TEMP:  74;                                

ASTORIA, OR    SUNNY     68  49  50 NW18G26   29.97F                  
6HR MIN TEMP:  66; 6HR MAX TEMP:  71;                                

$$
 
WAZ019-023-024-040-518-519-070100-
CASCADE MOUNTAINS AND COLUMBIA GORGE
  
CITY           SKY/WX    TMP DP  RH WIND       PRES   REMARKS
STAMPEDE PASS  SUNNY     68  42  38 CALM      30.07S                  
6HR MIN TEMP:  60; 6HR MAX TEMP:  69;                                

TROUTDALE, OR  SUNNY     82  50  32 NW8G17    29.87F                  
6HR MIN TEMP:  68; 6HR MAX TEMP:  83;                                

THE DALLES, OR MOSUNNY   85  47  26 SW6       29.86F                  
6HR MIN TEMP:  72; 6HR MAX TEMP:  85;                                

$$

WAZ026-027-041>044-520-521-070100-
EAST SLOPES
  
CITY           SKY/WX    TMP DP  RH WIND       PRES   REMARKS
OMAK           SUNNY     82  45  27 N15       29.96F                  
6HR MIN TEMP:  70; 6HR MAX TEMP:  82;                                

WENATCHEE      MOSUNNY   80  45  28 W9G18     29.94F                  
6HR MIN TEMP:  66; 6HR MAX TEMP:  82;                                

ELLENSBURG     SUNNY     82  47  29 SW6       29.95F                  
6HR MIN TEMP:  72; 6HR MAX TEMP:  82;                                

YAKIMA         MOSUNNY   85  45  24 N13       29.92F                  
6HR MIN TEMP:  77; 6HR MAX TEMP:  86;                                

$$

WAZ028-034-035-070100-
COLUMBIA BASIN
  
CITY           SKY/WX    TMP DP  RH WIND       PRES   REMARKS
EPHRATA        SUNNY     84  47  27 NE18      29.91F                  
6HR MIN TEMP:  73; 6HR MAX TEMP:  84;                                

MOSES LAKE     SUNNY     84  48  28 N15G25    29.91F                  
6HR MIN TEMP:  77; 6HR MAX TEMP:  85;                                

PASCO          PTSUNNY   79  56  45 S10       29.85F                  
6HR MIN TEMP:  73; 6HR MAX TEMP:  82;                                

HERMISTON, OR  PTSUNNY   77  56  48 SW7       29.86F                  
6HR MIN TEMP:  69; 6HR MAX TEMP:  78;                                

$$

WAZ036>038-070100-
NORTHEAST WASHINGTON
  
CITY           SKY/WX    TMP DP  RH WIND       PRES   REMARKS
SPOKANE GEIGER MOSUNNY   76  43  30 NE18      29.95F                  
6HR MIN TEMP:  69; 6HR MAX TEMP:  77;                                

SPOKANE FELTS  SUNNY     79  45  29 E16G23    29.94F                  
6HR MIN TEMP:  72; 6HR MAX TEMP:  80;                                

FAIRCHILD AFB  SUNNY     73  45  37 NE14      29.96S                  
6HR MIN TEMP:  70; 6HR MAX TEMP:  75;                                

COEURDALENE,ID SUNNY     77  46  33 E12G17    29.93F                  
6HR MIN TEMP:  70; 6HR MAX TEMP:  77;                                

DEER PARK      SUNNY     76  42  29 NE18G25   29.97F                  
6HR MIN TEMP:  71; 6HR MAX TEMP:  77;                                

$$

WAZ029>033-070100-
SOUTHEAST WASHINGTON
  
CITY           SKY/WX    TMP DP  RH WIND       PRES   REMARKS
PULLMAN        CLOUDY    75  51  43 NE8       29.92F                  
6HR MIN TEMP:  67; 6HR MAX TEMP:  78;                                

LEWISTON, ID   PTSUNNY   79  56  45 W5        29.85F                  
6HR MIN TEMP:  66; 6HR MAX TEMP:  80; 6HR PCP: TRACE;                

WALLA WALLA    MOSUNNY   73  57  57 VRB3      29.88F                  
6HR MIN TEMP:  62; 6HR MAX TEMP:  73;                                

PENDLETON, OR  MOSUNNY   73  53  49 SE8       29.89F                  
6HR MIN TEMP:  62; 6HR MAX TEMP:  73;                                

$$